Theta_e
312 312 312 313 313 313 313 313 313 313 312 313 313 313 312 312 313 313 312 313 314 313 311 311 311 311 311 311 311 311 311 311 311 311 312 313 312 311 312 315 319 318 314 312 309 305 301 297 295 294 295 295 294 294 294 294 293 293 293 292 291 291 290 289 289 289 288 287 287 286 285 285 284 284 284 283 283 283 283 282 282 282 283 282 282 281 280
313 313 313 313 313 313 313 313 313 313 312 313 312 312 312 312 312 312 311 312 312 311 311 311 311 311 311 311 311 311 311 310 311 311 311 310 310 310 312 315 318 318 315 312 309 305 302 299 296 294 294 294 294 293 294 294 293 293 293 292 291 290 289 289 289 288 287 287 286 285 285 284 284 283 283 283 282 282 282 282 282 282 282 281 281 280 279
314 313 313 313 313 313 314 314 313 313 313 313 313 313 312 312 313 312 312 312 312 310 310 310 310 310 310 310 310 311 310 310 310 310 310 310 310 311 311 312 314 314 313 311 308 305 302 300 297 295 294 294 294 294 293 293 293 292 292 291 290 290 289 289 288 287 287 286 285 285 284 284 283 283 282 282 282 282 281 281 281 281 281 280 280 280 279
316 315 314 314 313 314 314 314 314 314 315 314 314 313 313 313 313 313 313 313 312 311 310 311 311 311 310 310 310 310 310 311 311 311 310 310 310 311 311 310 311 312 311 310 309 306 304 301 296 295 296 295 294 293 293 293 293 292 291 290 290 289 289 288 288 287 286 285 284 284 283 283 283 282 282 281 281 281 281 281 280 280 280 280 279 279 279
317 316 315 314 314 314 315 315 314 314 315 314 314 314 313 312 312 313 313 313 312 311 311 312 311 311 311 310 310 310 310 310 310 310 310 310 310 311 310 309 310 310 309 309 309 307 305 302 298 297 297 295 294 294 294 293 292 291 290 290 289 289 288 288 287 286 285 285 284 283 283 283 282 281 281 281 281 280 280 280 279 279 279 278 278 278 279
317 316 316 315 315 316 316 316 315 314 314 314 314 314 313 312 312 312 312 312 311 312 312 312 312 311 311 311 311 311 311 311 311 311 310 311 311 310 310 310 310 310 308 308 307 305 303 302 301 301 299 297 297 296 294 293 292 291 290 290 289 288 288 287 286 286 285 284 283 283 282 282 281 281 280 280 280 279 279 278 278 277 277 277 278 278 279
316 316 316 317 318 317 317 316 314 312 312 313 313 313 312 312 312 312 312 312 311 311 311 311 311 311 311 311 311 311 311 311 311 310 310 310 310 310 310 309 309 309 308 309 309 306 302 301 302 301 300 298 297 295 293 292 291 290 289 289 288 288 287 286 286 285 284 284 283 282 281 281 280 279 279 279 278 278 278 277 277 277 277 277 277 278 278
315 316 316 318 318 317 316 315 312 311 311 312 313 313 313 311 312 312 312 311 311 311 311 311 311 310 310 310 310 310 310 310 309 309 309 309 309 310 310 309 309 310 308 308 309 306 303 302 302 300 300 299 296 294 293 291 290 289 289 288 287 287 286 286 285 284 284 283 282 281 280 279 279 278 278 278 277 277 277 276 276 276 276 276 277 278 278
316 316 316 316 316 316 316 315 314 312 311 312 312 313 313 311 310 310 310 310 310 310 310 309 309 309 310 310 310 309 307 306 305 305 306 306 306 307 307 307 307 306 304 303 304 304 303 303 302 301 300 297 294 292 291 290 289 288 288 287 286 286 286 285 284 284 283 282 281 280 279 278 278 278 277 277 276 276 276 275 274 275 276 277 277 278 278
316 316 316 316 317 318 315 315 314 311 311 312 312 313 314 309 304 305 306 305 305 305 305 305 306 308 310 310 310 307 303 302 302 303 303 303 304 304 304 304 304 302 301 301 302 302 303 302 300 300 297 295 293 290 289 288 288 287 287 286 286 286 285 285 284 283 283 282 281 279 278 278 277 277 276 276 275 275 275 274 274 275 276 276 276 277 278
315 316 317 316 317 317 310 306 307 306 308 310 310 314 313 304 300 303 304 303 302 302 302 303 304 307 309 308 307 305 302 302 302 302 303 303 303 303 301 301 301 299 297 298 299 298 297 296 295 295 295 293 291 289 288 287 287 286 286 286 286 285 285 284 284 283 282 281 280 279 278 277 277 276 276 275 275 274 274 274 274 274 275 275 275 276 277
314 316 316 314 315 312 303 300 302 302 304 308 312 316 310 298 296 302 302 301 302 301 301 302 302 303 305 304 303 303 302 301 301 302 303 302 303 303 300 298 298 297 296 299 299 296 293 293 293 293 293 292 290 288 287 286 286 286 286 286 286 285 285 284 283 282 282 281 279 278 277 277 276 276 275 275 274 273 273 273 273 273 273 273 273 274 275
311 313 313 314 315 307 299 300 302 300 304 312 314 309 300 294 297 301 300 299 300 300 300 300 300 301 302 302 302 301 300 299 299 300 302 301 301 301 300 298 298 297 297 298 297 295 293 293 293 293 292 290 289 287 286 285 285 286 287 286 286 285 284 283 282 281 280 280 279 278 277 277 276 275 274 274 273 273 272 272 272 271 271 272 272 272 272
304 305 305 309 311 304 298 299 299 298 301 305 303 298 295 295 298 299 298 297 298 299 298 298 299 300 300 299 300 299 298 298 298 298 300 301 301 300 300 299 298 297 297 297 295 294 293 293 293 293 291 290 288 286 285 285 286 286 286 286 285 284 283 282 281 280 279 278 278 277 276 276 275 274 273 273 272 272 272 271 271 271 270 271 271 270 270
299 301 302 305 306 303 299 298 297 297 296 296 296 296 295 296 297 297 297 297 297 297 297 297 298 299 298 298 298 297 296 297 297 297 299 300 302 302 301 301 299 297 297 297 295 294 294 293 293 293 291 289 286 284 284 286 286 286 286 285 284 283 282 281 280 279 278 277 277 276 275 275 274 273 272 272 271 271 271 271 270 270 270 270 269 269 268
300 301 302 303 301 300 298 296 295 295 295 295 296 296 295 295 296 296 295 295 295 296 296 296 297 297 297 297 297 296 296 297 297 298 298 299 301 301 300 300 299 297 297 297 296 296 295 293 292 292 291 289 285 284 286 287 286 285 285 285 283 282 281 280 279 278 277 276 276 275 275 274 273 272 271 271 271 271 270 270 270 269 269 268 268 268 269
298 298 299 299 297 297 297 296 294 294 295 295 295 294 294 293 293 293 293 293 293 294 295 295 295 295 295 295 295 295 296 296 297 298 299 299 300 300 298 298 298 297 296 296 294 294 294 293 292 292 292 289 286 286 288 287 285 285 285 283 282 281 279 278 277 277 276 275 275 274 274 273 272 271 270 270 270 270 270 270 270 269 268 268 269 269 269
294 294 294 294 294 294 294 293 294 294 294 293 292 291 290 290 290 290 291 291 292 293 293 293 293 293 293 293 294 294 295 296 296 297 298 298 298 297 297 297 296 296 295 293 291 291 293 293 292 291 291 290 288 289 289 287 285 285 284 281 280 279 278 277 276 275 275 274 273 273 272 272 272 271 270 270 270 270 269 269 269 269 269 269 269 269 270
290 290 290 291 292 292 292 292 293 293 292 290 289 288 288 288 288 289 289 290 291 291 291 291 291 290 291 291 292 293 294 295 295 296 295 295 296 296 296 296 295 295 295 295 295 296 295 292 292 291 290 290 290 290 288 286 285 284 283 280 279 277 276 276 275 274 273 272 271 271 271 271 271 270 270 270 270 270 269 269 269 269 269 269 270 270 270
288 289 290 290 291 291 290 290 290 289 288 288 287 286 286 286 287 287 288 289 289 288 288 288 288 288 289 290 291 292 292 293 293 293 293 293 294 294 294 295 294 294 295 296 298 297 294 292 292 292 290 290 290 289 287 286 285 283 281 279 278 276 275 274 273 273 272 272 271 270 270 270 270 269 269 270 270 270 270 270 270 270 269 269 270 271 271
289 289 290 290 290 289 289 290 288 286 286 286 285 284 284 285 286 286 286 286 286 286 286 286 286 286 287 287 288 289 289 290 290 291 291 292 292 293 293 294 294 294 295 295 295 294 293 293 292 291 291 291 290 287 286 285 284 281 279 278 277 276 274 273 272 272 271 271 270 270 270 270 269 269 269 269 270 271 271 271 272 272 271 271 271 271 271
289 289 290 290 289 289 289 289 287 285 284 285 284 283 283 283 284 283 283 283 283 283 283 283 283 284 284 284 285 285 286 287 287 288 289 289 290 291 292 292 292 293 293 293 292 292 292 293 292 291 290 290 289 287 285 284 283 281 279 277 276 275 273 272 271 271 271 270 270 270 270 269 269 269 269 270 270 271 272 272 272 273 273 272 272 272 271
289 290 290 288 288 289 289 288 285 284 284 283 282 281 281 281 281 281 280 280 280 280 281 280 280 280 281 281 282 282 283 283 284 284 285 286 286 287 287 288 289 290 291 292 291 291 291 291 291 290 290 289 288 287 285 283 282 281 279 276 275 274 273 272 271 271 270 270 270 270 269 269 269 269 270 270 271 271 271 272 272 273 272 272 272 272 272
289 290 288 285 285 286 286 284 283 283 283 282 280 279 279 279 278 278 278 278 278 278 277 277 277 278 278 279 279 279 279 279 280 280 281 281 282 282 282 283 284 286 288 290 290 291 291 290 290 289 289 289 288 286 285 283 282 280 279 277 275 274 273 272 271 270 270 270 269 269 269 269 269 270 270 271 271 272 272 273 273 273 273 273 272 272 272
288 286 283 280 281 281 281 281 282 282 281 279 278 278 277 277 277 277 276 276 275 275 275 275 275 276 276 276 276 276 276 276 276 277 278 278 278 278 279 279 280 282 284 285 285 286 288 289 289 288 287 288 287 286 285 283 281 280 278 277 276 274 273 272 271 270 270 269 269 269 269 269 269 270 271 271 272 273 274 274 274 274 274 273 273 272 272
282 279 278 278 279 280 280 281 282 281 279 277 276 276 276 275 276 275 275 274 273 273 273 273 274 274 274 274 274 274 274 273 274 275 275 275 275 276 276 277 278 279 280 280 280 281 282 284 286 287 286 287 287 286 284 283 281 279 278 278 276 275 273 272 271 270 270 269 269 269 269 269 270 271 271 272 272 273 274 275 275 275 274 274 273 273 272
278 276 277 280 282 282 281 280 280 278 276 275 275 275 274 274 274 273 273 272 272 272 272 273 273 272 272 272 271 271 271 271 271 272 272 272 273 274 275 276 276 276 277 277 278 279 280 281 283 285 286 286 286 285 283 282 280 279 278 277 277 275 274 272 271 270 270 269 269 269 269 270 270 271 272 272 273 274 274 274 274 274 274 274 274 273 273
276 273 275 278 280 279 278 276 274 273 273 274 274 273 273 273 272 271 271 271 271 271 271 271 271 271 270 270 269 269 269 269 269 269 270 271 272 272 273 273 273 274 274 275 276 278 279 280 281 283 284 285 285 284 283 281 279 278 277 277 276 275 273 272 271 270 270 270 270 270 270 270 271 271 272 272 273 273 274 274 273 273 273 274 274 274 273
273 272 272 273 273 273 273 272 272 272 273 273 273 272 272 272 271 270 270 270 270 270 270 270 269 269 268 268 267 267 267 267 268 268 268 269 269 270 270 270 271 272 273 274 275 276 278 279 281 282 283 283 283 283 282 280 278 277 277 277 276 275 273 272 271 271 270 270 270 270 270 270 271 271 272 272 272 273 272 272 272 271 272 272 273 273 273
271 270 270 270 270 270 271 271 272 272 272 272 272 271 271 270 269 269 269 269 269 269 268 268 268 267 267 266 266 266 266 266 266 266 267 267 267 267 268 269 269 271 272 273 274 276 277 278 280 281 282 283 283 283 281 279 278 277 277 276 276 275 273 272 271 271 270 270 270 270 270 270 271 271 271 271 271 271 271 270 270 269 270 270 271 270 270
269 269 268 269 270 270 270 270 271 270 270 270 270 270 269 269 268 268 268 268 268 267 267 267 266 266 265 265 265 265 265 265 265 265 265 265 266 266 267 269 270 271 273 274 275 276 277 278 280 281 282 283 283 282 281 279 277 276 276 275 275 274 273 272 271 271 270 270 270 270 270 270 270 270 270 270 270 270 269 269 268 268 268 268 268 268 268
268 269 270 270 270 269 269 269 269 269 269 269 268 268 268 268 267 267 267 267 266 266 265 265 265 265 264 264 264 264 264 264 264 264 264 265 266 267 268 270 270 271 272 273 274 276 277 278 279 280 281 282 282 281 280 278 276 276 275 275 274 273 272 271 271 271 270 270 270 270 270 270 270 269 269 269 269 269 268 267 267 267 267 266 266 266 267
267 270 272 270 268 268 268 268 268 268 268 267 267 267 267 267 266 266 266 265 265 265 264 264 264 264 264 263 263 263 263 263 263 264 265 266 267 268 268 269 269 270 271 273 274 275 276 277 277 278 278 279 280 280 279 277 276 275 275 274 273 272 271 271 271 270 269 269 269 269 269 269 269 268 268 268 268 268 267 266 266 265 265 265 265 265 267
266 268 268 267 266 267 267 266 266 266 266 266 266 266 265 265 265 265 264 264 264 263 263 263 263 263 263 263 262 262 262 263 263 264 265 266 267 267 268 268 269 271 271 272 272 273 273 274 275 275 275 276 277 278 277 276 275 274 274 273 272 271 271 271 270 269 269 269 268 268 268 268 268 267 267 267 267 267 266 265 265 264 264 263 264 265 266
265 265 265 265 265 265 265 265 265 265 264 264 264 264 264 264 263 263 263 263 263 263 263 263 263 263 262 262 262 262 262 263 263 264 265 266 266 267 268 269 269 269 269 269 269 270 271 271 272 272 273 274 275 275 275 274 273 273 273 272 271 270 270 270 269 269 268 268 267 267 267 267 267 267 266 266 266 265 264 264 263 263 262 263 263 265 266
264 263 263 264 263 263 263 263 263 263 263 263 263 263 263 262 262 262 262 262 262 262 262 262 262 262 262 262 262 262 262 263 263 264 265 266 267 267 267 267 266 266 267 267 268 269 269 270 270 271 271 272 272 272 272 272 272 272 272 271 270 269 269 269 268 268 267 267 267 267 267 266 266 265 265 265 264 264 263 262 262 262 262 263 264 265 266
263 262 262 262 262 262 262 262 262 262 262 262 262 262 261 261 261 261 261 262 262 262 262 262 262 262 262 262 262 263 263 263 264 265 265 266 266 265 265 265 265 265 265 266 267 267 267 268 269 269 269 269 269 270 270 271 271 271 270 270 269 268 268 268 267 267 267 266 266 266 265 264 264 264 264 264 263 263 262 262 262 262 262 262 263 264 264
262 262 262 262 262 261 261 261 261 261 261 261 261 261 260 260 261 261 261 261 261 261 262 262 262 262 263 263 263 263 263 263 264 265 265 264 264 263 263 264 263 262 262 263 264 264 265 266 266 267 267 268 269 269 270 270 270 270 269 269 268 267 267 267 266 266 265 265 264 264 263 263 263 263 263 262 262 262 261 261 261 261 261 261 262 263 263
261 261 261 261 261 260 260 261 260 260 260 260 260 260 260 260 261 261 261 261 261 262 262 262 263 263 263 262 262 263 263 264 264 264 263 262 262 262 263 263 262 260 260 261 262 262 263 264 265 266 266 267 268 268 269 269 269 268 268 267 267 267 266 266 265 265 264 263 263 263 263 262 262 262 261 261 261 261 260 260 260 260 260 261 262 262 262
260 260 260 260 260 260 260 260 260 259 260 259 259 259 260 260 261 261 261 261 262 262 263 263 263 263 262 262 262 263 263 263 264 263 261 260 260 261 262 262 261 260 260 260 261 262 263 264 264 265 266 266 267 267 267 268 267 267 267 266 266 266 265 264 264 263 263 263 262 262 262 261 261 260 260 260 260 260 260 260 260 260 260 261 262 262 262
260 260 260 260 260 260 260 259 259 259 259 259 259 260 260 261 261 261 262 262 263 263 263 263 263 262 262 262 263 263 263 263 263 262 261 260 259 260 261 261 260 260 260 260 261 262 263 263 264 265 265 265 266 266 266 266 266 266 266 265 265 264 264 263 263 263 262 262 262 261 261 260 260 259 259 259 259 259 259 260 260 260 261 261 262 262 262
259 259 260 259 259 259 259 259 259 259 259 259 260 261 261 262 262 262 262 263 263 263 263 263 263 262 262 262 262 262 262 261 261 261 260 260 259 258 259 259 260 260 260 261 261 262 263 263 263 264 264 264 265 265 265 265 265 264 264 264 263 263 263 263 262 262 262 261 261 260 260 260 259 259 259 259 258 259 259 260 260 261 261 262 262 262 262
259 259 259 259 259 259 259 258 259 259 259 260 261 262 262 262 262 262 263 263 263 263 263 263 262 261 261 261 261 261 261 261 260 259 260 260 260 259 259 259 260 260 260 261 261 262 262 262 262 263 263 264 264 264 264 264 263 263 263 262 262 262 262 262 261 261 261 260 260 260 259 259 259 259 259 258 258 259 260 260 261 261 262 262 262 262 262
259 259 258 258 258 258 258 259 259 259 260 261 262 262 262 262 262 262 262 262 262 263 263 262 261 261 260 260 260 260 260 260 259 259 259 260 260 260 260 260 260 260 261 261 261 261 261 261 262 263 263 263 263 263 263 263 262 262 262 262 261 261 261 261 260 260 260 260 260 260 259 260 259 259 259 259 259 259 260 260 261 261 261 262 262 262 262
259 258 258 258 258 258 259 259 260 260 261 261 262 262 262 262 262 262 262 262 262 263 262 261 261 260 260 259 259 260 260 260 260 259 259 259 259 259 260 260 260 260 260 260 260 261 261 261 262 262 262 263 263 262 262 262 262 261 261 261 261 261 261 260 260 260 260 260 260 260 260 260 260 260 260 260 260 260 260 261 261 261 261 262 262 262 262
258 258 258 258 258 258 259 260 260 261 261 261 261 261 262 261 261 261 262 262 262 262 261 260 259 259 259 259 259 259 260 260 260 260 260 259 259 259 259 259 260 260 260 260 260 261 261 261 262 262 262 262 262 262 261 261 261 261 261 261 260 260 260 260 260 260 260 260 260 260 260 260 260 260 261 261 261 261 261 261 261 261 262 262 262 262 262
258 258 258 258 258 259 259 260 260 261 261 261 261 261 261 261 261 261 261 261 261 261 260 259 259 259 259 259 259 259 259 260 260 260 259 259 259 259 259 259 260 260 260 260 260 261 261 261 262 262 262 262 262 261 261 261 261 260 260 260 260 260 260 260 260 260 260 260 260 260 261 261 261 261 262 262 262 262 262 262 261 261 261 261 262 262 262
258 258 258 258 259 259 260 261 261 261 260 260 261 261 261 261 261 261 261 260 260 260 259 259 259 259 259 259 259 259 259 259 259 259 259 259 259 259 259 259 259 260 260 260 260 260 261 261 262 262 262 262 262 261 261 260 260 260 260 260 260 260 260 260 260 260 260 260 261 261 262 262 262 262 262 262 262 262 262 262 261 261 261 261 262 262 262
258 258 258 259 259 260 261 261 260 260 260 261 261 261 261 261 260 260 260 260 260 260 259 259 259 259 259 259 259 259 259 259 259 258 258 259 259 259 259 259 259 259 259 259 260 260 261 261 262 262 262 262 262 262 262 261 261 261 261 261 260 260 260 261 261 262 261 261 261 262 262 262 262 262 262 262 262 261 261 261 261 261 262 262 262 262 262
258 258 258 259 260 261 261 261 260 260 260 260 260 260 260 260 260 260 260 259 259 259 259 259 259 259 259 259 259 259 259 259 259 259 259 259 259 259 259 259 259 259 259 259 259 260 260 261 261 262 262 262 262 262 262 262 262 262 261 261 261 261 261 262 262 263 263 262 262 262 262 262 262 262 262 261 261 261 261 261 261 261 261 261 261 261 261
258 258 259 260 261 261 261 260 260 260 260 260 260 260 260 260 259 259 259 259 259 259 259 259 259 259 259 259 259 259 258 258 258 258 258 259 259 259 259 259 259 259 259 259 259 259 260 261 262 263 263 263 263 263 263 263 262 262 262 262 262 262 262 262 263 263 263 263 262 262 262 262 262 261 261 261 261 261 261 261 261 261 261 261 261 261 261
258 259 260 261 261 261 260 260 260 260 260 260 260 260 260 259 259 259 259 259 259 259 259 259 259 259 259 259 258 258 258 258 258 258 258 258 258 258 258 258 258 258 258 259 259 259 259 260 262 263 263 263 263 262 262 262 262 262 262 262 262 262 262 262 262 262 262 262 262 261 261 261 261 261 261 261 261 261 261 261 261 261 261 261 261 261 261
Wind_Speed
20 19 21 21 20 19 20 20 21 20 19 18 16 17 18 16 14 15 14 14 16 15 15 20 23 23 21 20 21 21 18 17 15 12 11 12 15 15 10 8 9 10 10 11 11 12 12 13 17 20 24 28 30 32 35 36 37 40 39 39 39 39 38 38 39 39 38 37 37 37 37 37 37 38 39 39 39 39 40 39 39 38 37 35 33 30 27
18 19 21 23 23 22 21 23 23 22 21 22 23 24 25 25 23 20 19 23 24 19 18 23 24 21 19 19 22 23 22 22 19 15 15 17 18 17 11 10 11 11 12 13 13 13 12 12 14 18 22 26 29 33 35 35 37 39 38 38 38 37 37 39 38 36 35 36 36 36 37 37 37 38 38 38 38 39 39 39 38 37 36 34 32 30 28
14 18 21 22 23 23 23 24 23 22 23 24 26 25 24 23 23 24 26 27 24 20 22 26 24 21 19 19 23 26 26 25 22 17 17 19 16 13 12 12 12 12 12 13 13 12 13 14 16 19 23 27 31 32 32 33 36 37 37 37 36 37 37 36 35 34 35 35 35 36 37 37 37 37 38 38 39 39 39 39 38 37 36 34 32 30 29
11 16 20 22 23 23 23 22 21 22 24 23 23 21 19 19 22 25 26 22 18 18 22 23 23 23 23 24 26 27 26 26 23 18 19 19 14 12 13 12 12 13 14 13 13 14 14 15 16 21 25 25 25 27 30 33 34 33 35 35 35 35 35 33 34 35 35 35 36 36 37 37 38 38 39 39 40 40 40 40 39 38 37 36 34 31 29
10 14 19 20 18 15 14 16 21 26 27 25 23 20 19 22 22 19 18 17 18 19 19 20 22 23 23 23 23 24 24 23 20 17 18 19 16 14 13 12 13 15 14 13 14 15 14 15 19 27 28 25 26 31 34 33 31 32 34 35 34 33 33 33 35 36 36 36 37 37 38 39 39 40 41 42 42 43 42 41 40 38 37 35 33 31 29
8 13 16 14 11 10 8 13 22 28 28 28 27 24 25 27 23 20 19 20 21 21 19 20 22 22 22 21 20 19 16 14 15 17 19 20 18 14 12 14 15 15 12 12 12 13 16 21 26 30 29 28 31 33 30 29 30 32 33 33 32 31 32 34 35 36 37 37 37 37 38 39 40 41 42 42 42 42 41 40 39 38 37 35 33 31 29
6 7 10 10 9 8 8 12 20 26 29 31 30 28 28 29 27 26 26 25 23 23 22 22 21 22 21 19 18 17 14 12 14 17 19 20 18 14 12 14 14 11 11 11 10 12 19 25 26 24 25 28 29 26 26 28 31 33 32 31 30 31 32 34 35 36 37 37 37 37 38 39 40 41 41 41 41 41 41 41 40 38 37 36 33 31 29
5 5 8 11 9 3 2 4 10 16 20 23 23 24 27 29 28 26 26 26 25 24 23 21 20 20 19 16 15 15 15 14 14 15 18 20 19 15 12 12 12 11 11 12 14 17 21 23 22 21 24 26 25 23 26 29 30 31 30 29 29 30 32 34 36 38 38 38 37 38 39 40 40 41 41 41 42 43 41 40 39 37 36 35 34 32 30
7 9 11 12 13 8 3 4 9 13 16 17 17 18 19 16 13 13 14 18 20 19 17 17 16 16 14 12 10 9 12 15 16 15 14 16 17 16 13 12 12 12 12 15 18 21 20 19 21 23 23 23 23 22 23 26 27 28 28 28 29 32 33 35 37 38 39 39 39 39 40 41 41 41 41 41 42 43 41 39 38 38 37 36 34 33 32
8 12 11 9 13 12 7 7 10 13 17 19 17 15 11 5 13 14 13 15 15 14 15 17 15 9 6 7 6 8 14 16 16 16 15 14 15 14 13 12 11 11 13 14 17 19 18 17 18 19 19 21 22 20 20 23 25 25 25 27 30 32 34 36 38 39 40 40 40 40 41 41 41 41 40 41 41 41 41 40 39 39 38 36 34 34 33
10 13 10 9 11 6 5 10 12 11 12 12 10 11 6 10 17 12 12 14 13 12 14 15 12 8 5 5 6 9 14 14 12 13 14 14 14 13 13 13 11 12 14 12 9 8 7 6 6 9 16 20 19 17 18 21 22 21 24 28 32 35 36 36 38 39 40 41 41 41 41 41 41 41 41 41 40 39 38 38 38 37 36 35 34 32 31
12 15 14 11 8 2 9 13 15 17 15 7 4 6 3 13 17 9 10 13 11 10 12 11 10 8 5 6 8 10 13 13 11 10 11 13 13 12 13 17 19 19 18 14 9 7 5 1 4 9 15 17 15 15 17 19 19 22 28 32 33 33 33 34 37 38 39 40 41 41 41 40 39 40 40 39 39 38 35 34 33 33 33 33 31 30 29
11 14 14 11 4 3 8 11 14 19 15 2 3 2 6 13 15 9 10 13 11 10 10 9 8 6 5 7 10 12 13 13 13 12 10 10 12 11 11 16 20 20 19 16 11 8 5 1 7 11 15 14 12 12 14 15 20 25 28 27 27 29 31 33 35 37 37 39 39 38 39 38 38 38 38 38 38 37 34 32 31 30 29 29 28 27 27
7 7 9 10 4 4 10 12 12 15 10 3 3 7 8 10 12 11 11 12 11 10 10 9 8 9 9 9 12 13 14 15 15 14 12 11 12 13 13 15 16 14 13 14 13 9 5 2 7 13 15 14 11 12 13 16 21 21 19 21 25 28 30 31 33 34 34 35 36 35 35 36 36 35 35 35 36 35 33 32 30 29 29 28 27 25 24
8 7 7 8 5 5 14 15 10 9 6 5 7 8 7 7 9 11 11 11 11 11 12 12 11 12 13 13 13 15 16 16 16 16 14 11 10 10 10 12 13 11 8 9 11 9 5 4 9 13 15 14 12 13 15 19 20 17 18 24 27 29 30 31 31 32 32 33 34 35 35 36 37 35 33 34 34 33 33 32 30 29 29 29 28 25 23
5 6 5 4 6 8 10 9 5 5 5 4 4 5 6 6 7 8 9 10 10 11 13 14 14 13 14 15 15 16 16 16 16 16 15 13 11 9 8 11 15 13 8 9 12 12 8 8 11 14 17 16 13 14 18 21 19 20 23 27 28 29 30 31 31 32 32 33 34 35 36 37 36 35 35 35 34 33 34 34 33 31 31 31 29 25 22
5 5 6 8 9 9 6 4 5 6 5 3 3 5 6 6 6 6 7 10 11 11 12 14 14 13 14 16 16 15 16 16 16 16 15 14 12 11 12 14 17 16 13 13 14 13 12 13 13 15 18 17 14 14 20 21 21 23 26 28 30 30 30 30 31 32 32 33 34 35 37 38 37 36 36 36 35 34 34 35 36 35 32 32 32 27 21
9 10 10 11 11 11 12 9 5 5 5 4 5 7 6 6 7 7 8 10 12 12 12 13 13 14 15 17 17 15 15 15 15 14 15 14 13 13 13 14 17 18 16 14 12 11 14 15 15 16 19 19 17 18 20 21 23 26 28 29 29 30 30 30 31 33 32 32 33 34 36 37 36 37 38 37 35 32 33 37 39 38 35 33 32 28 22
11 10 11 11 11 14 16 9 5 5 4 4 4 5 5 5 7 8 9 10 12 12 12 13 15 16 17 17 17 16 14 15 15 14 15 16 15 14 15 17 19 17 13 10 9 9 12 17 18 19 20 22 23 21 19 21 24 27 29 30 29 29 30 31 31 33 33 32 32 33 34 35 34 34 36 38 36 34 37 40 38 35 36 36 33 28 24
10 10 12 13 11 11 12 4 4 3 4 3 3 4 5 5 7 7 8 10 11 11 12 13 15 17 17 16 16 16 15 14 14 14 15 16 16 17 18 20 20 16 11 10 10 9 12 18 21 21 22 25 26 23 19 21 25 27 29 30 30 29 31 31 32 33 34 34 33 34 34 35 35 34 36 38 37 37 41 43 37 33 35 37 35 32 28
10 10 10 8 8 11 10 2 4 3 5 4 4 5 6 6 7 7 8 10 10 11 13 13 13 15 17 16 16 16 16 15 15 15 16 17 17 17 18 20 20 16 13 12 11 11 16 22 22 22 24 26 26 24 22 23 26 28 28 28 28 29 30 31 31 32 33 34 34 34 34 34 34 34 36 38 37 36 37 40 39 39 39 38 35 33 32
9 9 5 1 4 11 11 3 4 4 6 4 3 5 6 6 7 8 10 11 10 10 12 12 12 14 15 15 16 16 15 16 17 18 19 18 17 17 20 22 22 20 18 17 15 16 21 24 23 23 25 26 25 25 25 26 28 29 28 25 24 25 27 28 31 33 34 34 36 36 35 35 33 31 32 35 36 35 34 35 36 37 39 39 37 36 34
11 10 4 4 3 7 9 5 3 4 5 4 5 6 6 5 6 7 9 11 11 11 12 12 13 13 15 16 16 15 15 16 17 18 20 19 18 20 22 21 20 20 22 21 18 19 23 25 24 25 27 26 25 25 26 28 30 31 29 25 22 23 26 28 31 33 33 33 34 34 34 35 34 31 29 29 30 28 29 30 29 29 31 33 34 35 34
13 7 4 5 3 6 9 8 7 6 3 3 6 8 7 6 7 7 8 9 11 11 11 12 12 13 15 16 16 15 17 18 17 17 21 23 24 23 23 21 19 20 21 21 19 20 23 24 23 24 26 27 27 27 28 30 32 32 31 28 23 23 25 26 28 30 29 28 30 29 28 30 30 29 29 26 23 21 22 23 23 23 25 27 29 30 30
7 2 3 3 4 8 9 8 7 5 1 3 6 8 7 8 9 9 9 10 10 10 12 14 13 12 13 14 14 15 15 17 20 22 22 24 25 22 20 21 21 21 21 22 25 27 27 25 23 22 25 28 29 28 29 31 33 34 33 31 27 24 24 25 25 27 27 27 28 29 29 30 30 29 29 26 23 23 24 23 22 22 23 25 26 26 26
0 1 0 3 7 9 7 5 4 4 4 6 8 8 8 10 11 11 10 11 11 11 12 13 14 15 14 12 12 13 14 19 25 24 18 17 19 17 16 19 22 24 25 27 30 31 30 29 28 25 25 30 31 29 31 33 35 35 35 34 30 28 29 29 29 28 28 28 29 30 30 31 30 29 28 28 28 29 28 26 25 25 24 24 25 25 24
3 3 3 4 7 7 4 3 5 7 8 8 9 11 11 10 10 12 13 14 13 13 14 14 15 17 17 14 13 14 17 20 22 20 15 15 17 18 20 24 27 29 30 30 32 32 30 29 28 27 28 31 30 29 31 34 35 36 35 34 31 29 31 32 31 30 30 31 31 30 30 31 30 29 28 29 31 31 29 28 27 26 25 25 25 24 23
3 3 2 3 6 8 8 7 9 10 9 8 9 11 11 9 10 12 14 15 14 13 13 15 14 14 15 14 13 13 14 16 17 16 15 16 21 25 28 29 30 32 31 30 31 31 28 26 26 27 30 31 26 25 29 33 34 34 34 33 30 28 29 32 31 30 30 31 31 31 31 31 30 29 29 29 30 29 29 28 28 26 26 27 27 25 23
3 2 2 3 6 9 11 11 10 10 9 8 9 9 8 9 11 13 13 14 14 13 13 15 14 13 13 13 12 11 11 14 16 17 19 23 27 29 30 30 33 36 34 31 30 29 26 25 24 25 27 28 23 23 28 31 33 34 33 32 30 28 28 31 31 29 29 30 30 30 31 30 30 29 29 29 29 28 27 27 27 27 28 30 30 27 24
2 3 4 7 8 8 9 10 10 10 10 9 9 10 9 9 11 14 14 13 12 12 13 13 13 14 13 12 12 12 13 15 19 21 24 28 30 31 32 32 30 27 23 21 23 24 25 26 26 26 27 26 23 24 27 30 33 33 33 33 32 30 30 31 30 29 27 27 28 29 29 29 29 29 28 28 28 27 26 27 28 28 28 29 30 28 25
8 6 6 7 6 6 7 9 10 12 11 8 9 12 12 11 13 15 16 14 12 13 14 14 14 15 14 13 15 18 18 19 22 24 26 29 30 31 31 28 21 16 16 18 21 23 25 25 26 27 27 26 25 26 28 30 31 30 29 29 28 28 28 29 29 28 27 27 28 29 29 29 28 28 28 28 27 26 26 27 27 27 26 27 27 27 26
11 10 5 3 4 7 8 7 8 11 13 12 12 12 11 11 13 16 17 15 14 14 15 15 15 15 16 17 19 20 20 20 22 22 23 26 27 27 26 24 23 24 26 27 27 26 25 24 25 26 26 25 24 26 28 30 30 27 26 26 25 24 27 29 29 27 28 29 30 29 29 29 27 27 27 26 26 27 28 27 26 25 26 26 26 26 28
9 10 7 6 9 12 13 11 8 10 13 14 13 12 11 10 11 14 14 15 15 15 15 14 14 16 19 21 20 18 17 18 19 18 16 17 20 23 25 27 29 29 30 30 30 29 27 27 28 30 30 28 26 27 29 31 30 27 26 26 24 24 26 29 30 29 28 28 29 29 29 29 28 27 27 27 27 28 28 27 27 26 25 25 26 28 29
5 7 8 9 9 11 14 15 14 13 14 15 14 14 12 11 11 13 13 14 16 17 16 16 17 20 22 21 17 15 15 14 15 16 14 13 17 24 28 30 29 29 30 31 31 30 30 31 32 32 31 27 25 27 29 30 29 26 25 25 25 24 25 27 29 29 27 26 26 28 29 29 29 29 29 29 29 29 28 28 28 27 26 25 27 28 27
6 8 9 9 9 10 12 14 14 14 15 17 17 17 15 13 13 14 15 16 17 20 21 22 23 23 21 17 15 14 14 14 16 17 16 15 19 25 27 25 24 25 26 29 31 32 32 32 30 28 26 23 23 25 27 27 26 24 24 25 25 25 25 26 28 28 27 27 28 28 29 28 29 30 31 30 29 29 28 28 28 28 27 27 27 27 24
7 8 9 8 9 11 12 13 13 14 15 15 16 17 18 17 16 17 19 20 21 23 25 25 23 20 16 14 14 14 14 15 16 16 16 19 24 26 24 22 21 20 19 21 23 24 23 22 22 21 20 19 18 20 21 22 22 22 24 25 25 24 25 26 26 26 27 28 29 28 28 29 29 29 29 29 28 29 29 28 28 29 29 29 28 27 25
8 9 9 9 9 12 13 13 15 16 16 16 16 17 18 19 20 21 23 23 23 25 25 23 20 17 16 16 17 17 17 18 18 18 20 23 25 23 20 18 17 14 11 12 15 17 18 18 17 16 14 13 12 14 17 20 21 22 24 25 25 25 25 25 25 25 25 26 27 27 27 27 28 27 27 28 29 29 29 29 29 29 30 30 29 28 26
10 10 11 12 13 12 14 17 20 20 19 20 19 18 19 21 23 24 24 23 24 26 26 23 20 19 18 17 16 15 16 20 23 22 22 22 21 17 14 12 9 6 6 12 19 21 19 16 11 8 7 6 7 12 17 21 23 24 24 25 25 25 25 25 24 24 24 25 26 26 26 27 28 29 29 30 30 30 30 30 30 30 30 30 29 28 26
12 11 12 13 13 12 14 17 19 19 19 20 19 19 21 24 25 24 22 23 25 26 25 23 20 17 15 15 14 13 15 21 23 20 19 20 19 16 13 12 10 9 12 17 21 20 15 11 7 4 1 3 8 13 18 22 23 23 23 24 25 25 25 25 25 24 25 25 25 25 25 26 27 29 30 31 31 30 30 31 31 31 30 29 28 27 26
11 11 11 12 12 11 12 13 14 17 20 21 20 20 22 24 23 20 18 19 24 26 24 21 17 13 12 14 14 13 16 22 23 20 17 16 15 12 11 11 11 12 14 16 16 14 10 8 5 3 4 7 12 16 19 22 22 22 23 23 24 24 24 24 25 25 25 25 25 26 26 26 26 27 29 30 30 30 30 31 31 31 30 29 28 27 26
12 12 12 12 11 11 12 12 14 17 20 21 23 24 25 25 22 18 16 18 22 24 22 19 15 12 14 16 16 16 19 23 23 20 15 10 8 7 6 6 10 14 14 13 11 9 7 6 6 6 8 11 15 18 20 21 22 22 22 22 23 23 23 23 24 24 23 24 26 28 30 31 30 29 29 29 29 29 31 31 31 30 30 29 28 27 25
12 13 13 13 12 12 12 13 15 16 18 20 23 25 25 24 22 20 20 22 22 22 21 20 19 18 18 19 19 19 19 18 20 20 15 9 6 5 5 6 12 14 12 9 9 8 7 8 9 10 13 15 17 20 21 22 22 22 22 22 23 24 24 23 22 22 24 26 29 30 33 36 36 32 29 29 30 30 32 32 30 29 29 28 27 25 24
14 14 13 12 12 12 13 13 14 14 15 18 21 22 23 23 22 21 21 22 22 20 19 18 18 18 19 18 16 14 12 12 15 16 13 9 7 7 7 9 12 12 9 9 10 11 12 12 13 15 17 19 21 23 24 25 24 24 24 24 24 24 23 23 24 26 28 30 31 32 34 35 35 32 30 30 31 31 31 30 30 28 27 27 25 24 22
14 13 11 12 14 15 14 13 13 13 14 17 19 21 22 21 21 21 21 20 19 19 16 13 13 14 15 14 12 9 7 8 10 10 7 5 6 10 11 11 11 11 11 12 14 15 16 17 19 21 22 24 25 26 26 26 26 26 26 25 25 25 25 25 26 28 29 29 30 31 32 31 30 30 31 31 31 29 28 28 28 27 26 25 24 22 20
14 14 15 16 17 15 13 12 13 15 18 19 20 20 20 19 20 22 22 19 18 16 13 11 13 14 14 13 11 10 10 11 12 11 7 3 4 8 11 12 13 14 15 17 18 19 20 21 24 25 26 27 27 27 27 26 26 26 26 26 25 25 25 26 25 25 25 26 28 30 30 30 30 31 32 31 30 29 28 27 27 26 25 24 22 20 19
14 17 18 17 16 16 17 18 19 20 20 18 15 15 16 18 20 21 20 18 16 15 13 13 14 15 15 14 13 12 11 12 14 15 13 8 6 8 12 15 16 17 19 20 20 21 24 26 27 28 28 29 29 28 27 27 27 26 26 26 27 27 27 27 26 26 26 27 28 29 29 30 31 31 31 30 30 29 28 27 26 24 23 21 20 18 17
14 15 16 17 18 21 23 23 20 17 15 12 9 10 13 18 20 19 17 17 16 15 14 14 15 16 17 16 13 9 7 7 9 15 17 15 13 14 17 19 20 22 23 23 23 24 27 28 28 29 29 30 30 30 29 28 29 29 28 29 29 30 30 29 29 29 29 29 29 30 30 31 31 31 30 30 29 28 27 26 25 23 21 19 18 17 15
15 15 18 21 23 23 22 18 13 10 9 9 9 10 13 18 18 16 15 16 16 14 14 15 16 17 18 18 16 14 12 8 6 9 15 17 17 16 18 20 22 24 25 26 26 28 29 29 29 30 30 31 31 31 30 30 30 31 31 31 31 31 30 30 30 30 30 30 30 31 31 31 30 30 30 29 28 27 26 24 23 21 20 18 16 15 13
19 19 20 20 19 16 13 10 7 6 8 10 10 11 14 15 14 12 13 14 13 11 12 13 15 16 17 17 17 19 19 16 12 11 14 17 18 17 19 21 23 24 25 26 27 28 28 29 30 31 31 32 32 32 32 32 32 32 32 31 31 30 30 29 29 30 30 30 30 30 30 29 28 28 27 26 25 24 22 21 20 19 17 16 15 13 12
17 15 13 11 10 9 9 7 6 7 9 11 11 12 13 12 8 8 10 13 11 9 9 11 13 15 16 17 17 18 19 19 18 17 17 18 18 19 20 21 22 23 25 26 26 26 28 29 30 31 32 32 32 32 32 33 32 32 31 30 29 29 28 28 28 28 29 29 28 28 28 27 26 25 24 24 22 21 19 18 17 16 15 14 13 12 10
13 10 9 9 11 12 12 11 10 11 11 12 11 11 11 10 8 8 10 11 10 7 6 8 10 13 14 15 16 17 18 18 18 18 18 18 19 20 21 21 22 24 26 27 27 27 29 31 32 33 33 33 32 32 31 31 31 30 30 29 28 27 26 26 26 26 26 26 26 26 25 24 24 23 22 21 20 19 18 16 15 14 13 12 11 9 8
16 14 13 12 13 13 13 13 12 11 11 11 10 10 10 9 7 7 9 10 9 7 5 5 7 10 13 14 14 16 17 18 19 19 19 19 20 21 22 23 24 25 26 27 27 28 29 31 32 33 33 32 32 31 30 30 29 29 28 27 26 25 25 24 23 24 24 23 24 23 22 21 20 20 19 18 17 16 15 14 13 12 11 10 9 7 6
Wind_Direction
228 228 235 241 245 247 246 247 250 253 256 259 259 256 253 252 253 255 261 270 267 261 259 263 266 269 275 279 278 275 271 265 258 254 257 260 264 269 264 243 237 231 230 236 233 225 220 216 216 215 215 216 215 214 216 214 210 210 207 203 203 203 203 206 208 208 206 204 202 200 198 197 197 196 195 195 195 195 195 195 194 194 194 194 193 192 192
233 228 231 234 240 245 247 247 247 249 253 254 254 254 253 252 254 259 263 261 258 256 255 256 259 265 271 275 275 275 272 268 263 259 259 261 266 272 263 236 230 228 227 232 231 225 220 215 214 214 215 215 214 214 215 212 210 209 204 201 201 201 202 206 206 204 202 201 199 197 195 195 195 193 192 192 192 192 192 193 193 193 193 192 192 191 190
239 232 233 232 235 240 245 248 249 249 251 251 250 251 252 255 259 257 255 255 256 254 252 255 258 261 263 265 268 270 269 268 267 265 263 263 264 265 253 232 229 233 230 230 231 225 219 218 214 213 215 215 215 216 214 212 210 207 201 199 199 200 202 204 201 199 198 197 195 194 194 193 192 190 189 189 189 190 191 192 193 192 191 190 190 192 191
237 231 234 234 233 236 239 244 247 247 247 246 246 245 244 245 249 252 251 251 251 249 250 254 257 256 256 256 259 262 265 268 271 270 268 268 263 253 245 234 230 234 231 228 230 224 221 221 215 215 217 216 214 216 215 213 210 203 198 198 199 200 201 199 196 196 195 193 192 192 192 191 190 188 187 187 187 188 189 191 191 190 190 190 189 190 191
240 229 234 236 233 233 232 228 231 237 242 246 247 247 244 241 241 244 247 246 247 248 249 252 254 252 252 250 251 256 262 268 274 274 270 270 265 251 241 234 234 236 233 228 226 224 223 220 218 221 219 212 213 217 215 211 204 196 196 198 198 198 196 194 194 194 192 191 190 191 190 189 188 186 186 186 187 188 189 189 190 189 188 189 187 188 190
246 233 238 240 231 231 225 209 215 225 233 240 244 244 242 241 240 241 245 248 252 252 249 248 251 252 251 251 252 258 264 271 275 273 269 268 266 257 238 233 238 236 229 225 225 227 230 229 228 227 221 216 218 219 212 204 197 194 194 195 195 195 193 192 193 191 190 190 189 189 188 187 186 185 185 186 187 187 187 186 186 186 186 187 188 188 190
255 240 242 242 234 232 225 210 212 219 227 233 240 243 244 245 246 247 249 251 251 251 252 253 254 255 257 260 264 267 266 263 263 267 270 271 271 263 243 238 241 233 223 227 230 230 234 234 232 228 222 218 218 212 202 196 193 191 192 192 192 192 191 191 191 189 189 188 187 187 186 184 184 184 185 186 186 186 186 185 186 186 186 187 188 188 190
256 243 232 241 254 260 165 193 209 219 230 235 241 248 249 249 252 254 256 258 257 257 259 260 261 263 266 267 267 271 278 284 287 286 282 281 279 270 253 243 240 228 217 216 221 226 232 233 227 222 220 215 207 200 195 191 188 187 188 188 188 189 190 191 191 189 187 186 185 184 183 182 183 184 184 185 186 185 184 184 185 186 185 186 187 187 188
238 249 244 251 268 270 222 196 201 207 218 220 226 242 249 256 281 297 297 293 292 290 290 289 284 276 275 274 273 298 329 338 339 331 318 312 308 301 290 277 265 255 240 229 228 229 229 227 222 218 215 204 192 188 186 183 182 182 183 186 188 189 191 191 190 189 187 186 184 183 182 182 183 184 184 185 185 184 183 183 184 184 185 185 187 187 188
232 253 252 252 262 256 243 246 235 224 222 216 219 237 246 353 12 7 6 357 348 348 347 337 325 313 294 284 296 351 359 354 350 345 342 343 339 332 326 317 307 299 289 274 258 242 228 224 221 212 199 188 180 177 177 177 178 179 183 188 190 190 193 192 189 189 188 187 185 184 184 184 184 184 184 184 185 186 185 184 184 184 184 183 185 188 189
246 253 255 260 262 270 348 330 315 307 280 254 245 241 246 6 1 359 16 11 4 9 2 349 351 16 20 324 323 346 347 341 339 336 336 340 342 342 340 338 335 328 326 325 307 275 248 234 217 190 181 177 172 172 176 176 175 179 189 194 194 194 194 191 189 189 189 188 187 186 186 186 185 184 184 184 185 186 187 186 184 182 181 180 181 185 187
257 257 261 267 262 338 4 341 334 330 313 283 234 229 286 348 337 342 18 4 352 4 0 352 5 20 5 324 317 322 326 325 323 323 327 332 334 336 340 344 348 349 352 359 3 355 353 19 166 172 175 173 172 177 177 174 180 193 199 199 197 195 192 189 189 190 189 189 189 188 187 186 185 185 184 183 183 184 184 184 181 179 178 177 176 180 184
271 262 263 268 249 63 7 351 357 348 332 291 153 268 316 327 317 330 9 354 342 352 353 350 353 341 314 299 296 303 312 314 315 319 322 322 321 322 329 339 346 352 354 355 357 351 338 201 171 173 172 172 180 183 174 181 199 205 203 198 193 190 188 188 189 189 189 190 190 189 188 185 184 185 185 183 182 180 180 179 176 173 172 170 170 175 182
296 280 284 287 269 61 22 8 17 16 1 313 298 316 315 316 319 333 349 344 338 338 337 334 319 302 298 295 294 302 311 310 312 317 318 319 320 321 327 337 344 347 344 343 346 344 329 229 185 181 177 179 185 180 183 204 213 208 200 193 189 188 187 187 187 188 188 189 188 187 187 184 182 183 184 183 181 178 175 174 170 166 166 166 167 171 178
284 275 277 277 267 17 18 8 12 30 19 299 294 316 319 321 331 332 333 337 337 330 324 321 312 306 308 309 311 315 315 314 315 314 314 315 311 308 313 322 326 327 323 318 316 313 298 236 207 194 186 185 184 186 203 216 211 200 196 192 188 186 185 185 186 186 186 186 186 185 185 184 181 181 181 180 178 175 173 169 165 163 165 165 166 168 175
279 265 260 288 314 339 6 12 349 342 342 295 284 320 331 336 346 341 333 334 335 331 328 325 323 322 321 322 324 323 319 320 320 317 317 317 310 302 300 301 305 306 295 283 287 285 266 236 218 205 199 194 188 200 217 216 203 194 194 190 185 184 184 183 184 184 183 184 185 184 184 183 180 179 179 177 175 174 173 169 164 163 164 166 167 167 170
284 275 286 314 321 318 330 350 335 340 6 14 352 355 351 346 351 347 333 329 331 334 333 326 323 324 322 320 320 319 317 317 316 316 318 317 313 311 308 304 304 302 290 281 282 277 262 245 228 219 215 203 196 215 223 212 199 195 191 185 182 182 181 181 181 180 180 181 183 184 183 182 181 179 177 175 173 174 175 172 167 163 164 168 169 167 167
301 295 294 301 308 310 316 330 5 36 41 34 22 16 2 343 340 338 331 327 327 327 326 322 318 315 315 314 311 310 309 308 309 312 312 311 312 312 309 309 310 306 298 289 283 278 273 262 245 235 230 218 216 230 226 209 201 197 189 183 181 179 178 180 179 177 176 177 180 183 183 183 184 183 179 176 174 174 175 173 169 166 166 168 169 168 168
301 297 295 301 307 308 312 327 50 63 32 34 41 15 339 323 325 325 321 317 316 317 319 316 311 309 310 310 308 308 308 306 307 310 309 308 310 309 308 309 309 307 302 290 278 274 276 270 259 250 242 235 234 238 229 211 203 197 188 183 180 178 177 177 176 176 175 175 177 179 182 184 185 185 183 180 176 174 175 174 171 168 167 168 169 169 166
277 280 289 299 300 292 296 314 90 60 352 12 17 335 318 316 311 311 313 314 314 315 313 311 309 307 307 308 308 309 310 308 309 310 308 306 307 305 306 307 306 304 297 285 275 267 267 269 264 254 247 245 243 239 229 215 203 194 189 186 182 179 178 175 174 176 177 176 176 178 181 184 185 186 186 184 181 179 178 175 173 171 170 170 171 170 164
278 277 281 297 305 295 289 284 94 23 333 334 331 319 318 315 311 314 316 312 311 310 307 307 308 305 304 309 312 312 311 310 310 310 307 306 306 304 305 305 303 298 290 282 276 270 268 270 266 255 250 250 246 237 228 216 203 194 192 189 185 181 178 175 175 177 177 178 179 179 180 184 187 189 190 188 184 181 181 180 178 177 175 175 176 171 164
278 275 262 240 303 294 284 264 82 7 319 302 304 314 318 320 322 324 317 308 304 303 302 306 311 307 305 309 313 312 310 309 311 312 310 309 307 306 309 310 307 300 293 287 280 275 274 273 268 259 255 253 246 237 227 215 205 198 192 189 187 184 181 179 178 177 178 180 181 181 181 181 183 186 191 191 187 182 182 184 185 183 181 180 177 171 165
266 272 245 177 216 272 276 287 347 332 308 311 320 316 313 314 315 313 308 302 301 301 302 306 309 306 304 308 312 312 309 307 309 310 309 308 308 307 309 310 307 302 300 294 284 275 274 272 266 260 257 253 246 238 227 216 209 203 194 189 190 190 189 188 185 182 181 181 181 182 181 179 178 176 178 184 188 187 184 184 184 184 183 178 173 169 165
270 271 209 181 209 262 272 291 308 300 303 344 323 310 312 316 312 305 298 294 295 297 299 301 302 302 304 308 311 310 307 305 306 307 305 303 301 302 305 306 305 304 304 303 297 290 284 277 267 260 257 254 247 237 228 218 212 206 199 196 196 196 195 193 189 185 183 180 179 179 178 178 177 173 168 169 176 181 180 176 171 170 169 165 161 161 161
269 259 161 191 251 265 272 286 285 270 306 2 316 302 310 314 308 303 300 298 298 300 298 296 296 299 302 305 308 307 305 302 301 301 300 297 296 297 300 302 303 305 306 308 306 302 298 292 283 268 258 255 249 238 228 220 212 207 204 203 202 198 194 191 188 187 184 180 179 179 178 178 178 175 170 166 162 161 163 162 157 155 155 153 150 150 152
134 63 298 266 261 260 271 287 270 268 338 340 311 302 310 310 306 305 305 302 300 299 296 294 297 300 298 296 298 300 298 296 297 297 295 292 292 293 295 300 304 305 305 302 298 295 294 295 292 280 264 256 250 238 227 219 212 208 208 207 206 202 196 190 187 186 185 183 182 182 181 180 180 177 174 168 160 155 155 155 153 152 151 150 147 146 150
98 54 3 305 281 268 260 277 296 311 324 318 305 306 310 309 307 306 303 298 295 291 287 288 295 299 297 293 291 292 292 292 294 294 289 285 288 293 299 304 304 302 298 293 288 287 287 289 290 283 272 265 254 238 226 217 211 209 210 209 207 205 199 193 189 187 186 185 184 183 182 182 181 177 173 167 161 158 156 153 151 150 150 151 151 150 151
106 57 32 289 280 287 293 300 305 305 301 296 299 303 305 307 307 303 299 298 298 295 290 290 292 293 294 298 299 295 291 289 288 287 286 287 292 297 302 304 301 297 293 288 285 285 285 282 279 276 273 272 263 242 227 217 210 209 210 208 206 204 198 194 191 188 187 186 185 184 183 181 179 175 170 166 162 159 155 152 148 146 145 147 149 150 153
103 45 353 266 268 284 293 297 297 293 291 295 297 295 298 306 303 296 293 295 299 298 296 296 295 289 289 295 297 293 290 289 288 289 291 293 295 298 301 300 296 292 288 284 284 286 286 283 279 275 274 275 266 245 229 218 211 210 210 207 205 201 197 194 192 188 186 185 185 183 181 178 175 172 168 165 162 157 152 149 145 141 139 140 141 142 146
354 342 307 286 279 279 284 291 295 294 296 302 300 295 298 299 294 291 291 293 293 293 293 297 298 295 291 290 289 286 284 285 287 289 290 291 293 296 296 295 293 289 283 280 281 284 285 285 284 281 280 278 267 248 232 219 213 213 212 208 205 203 197 192 188 184 182 181 179 178 176 175 174 170 165 162 158 153 149 146 143 140 139 140 141 141 142
318 309 281 268 275 282 286 294 298 296 296 298 297 297 301 302 296 294 295 295 293 291 293 296 296 295 293 292 290 287 285 283 284 284 284 286 288 288 285 283 282 283 284 284 284 283 283 281 278 278 279 274 261 246 232 219 214 215 213 208 206 203 196 187 182 179 178 175 174 174 173 173 173 169 163 158 154 149 146 144 143 141 140 142 145 147 145
323 317 294 266 304 305 293 286 288 295 300 303 299 296 298 300 297 295 296 298 297 296 297 297 294 294 296 296 293 291 288 285 283 282 283 283 281 280 280 282 284 284 285 286 287 288 287 283 280 283 287 278 259 243 229 218 213 211 207 203 201 196 187 181 177 176 175 173 172 173 172 170 168 165 161 156 151 148 147 146 145 145 145 145 149 154 155
339 331 324 333 335 322 311 305 298 295 299 300 297 294 293 291 288 288 290 295 296 296 297 296 294 295 297 297 295 292 290 288 286 285 283 281 282 288 294 293 288 282 279 282 286 287 286 283 282 285 287 279 260 242 229 219 212 207 202 198 192 185 180 177 173 172 172 172 172 171 168 165 162 160 158 155 151 150 149 147 145 145 145 147 152 158 162
323 302 298 307 312 307 303 304 303 302 302 298 294 294 294 291 289 289 291 294 295 295 296 296 296 297 297 295 293 291 290 291 292 291 289 289 293 298 298 294 289 286 285 288 289 288 284 282 282 282 281 273 255 239 227 216 209 203 196 188 181 175 173 172 169 168 167 167 166 164 162 160 159 158 157 155 153 150 148 145 145 144 143 145 150 156 159
294 283 282 285 282 277 279 284 288 293 296 295 295 296 296 295 295 294 294 294 294 294 296 297 297 296 295 291 289 289 288 288 289 289 291 294 297 299 301 301 301 298 294 291 290 287 282 278 278 278 275 263 246 232 221 210 202 194 185 178 172 168 167 166 165 164 163 160 159 159 160 160 159 158 157 154 151 147 143 141 141 141 140 141 145 148 149
289 287 283 279 276 275 275 275 278 281 282 283 288 292 294 296 297 296 295 294 295 295 297 297 296 294 291 289 288 288 287 285 285 287 290 295 299 302 306 307 304 299 295 294 296 294 286 279 277 275 267 252 235 222 210 199 190 180 172 167 162 159 159 160 159 159 158 158 157 159 159 158 155 153 152 149 143 139 137 136 137 139 139 140 141 142 143
284 284 285 285 282 278 275 275 278 280 280 280 281 285 290 294 296 295 294 294 295 296 296 295 294 292 290 289 288 286 284 284 286 287 291 297 302 305 305 301 299 298 294 300 310 311 302 290 281 272 258 239 220 205 193 184 174 166 161 158 154 152 152 152 152 152 153 154 154 153 152 149 146 146 145 141 136 135 135 135 136 139 140 142 143 144 146
289 285 283 284 284 281 279 281 281 281 282 284 284 285 288 290 292 294 294 294 295 295 294 291 289 289 289 291 291 288 284 286 288 290 295 301 306 304 296 291 294 293 287 299 309 310 305 296 289 275 254 225 195 182 177 170 162 157 153 151 149 149 147 146 147 148 148 148 148 146 144 142 140 138 135 133 132 133 134 136 138 141 143 145 147 149 150
298 293 287 284 284 282 283 285 285 284 285 287 290 291 290 289 290 292 292 293 295 295 294 292 292 292 294 296 294 290 291 295 296 298 303 306 304 296 285 279 280 285 295 303 308 308 306 305 310 312 281 159 152 155 157 156 151 147 145 145 145 144 144 144 144 143 143 142 142 140 138 137 135 132 129 128 128 130 133 137 141 143 144 147 149 150 151
302 299 295 292 291 290 290 291 291 290 289 289 289 291 292 292 292 292 292 294 295 295 295 295 297 298 298 299 298 299 306 309 309 308 307 306 303 296 287 283 292 306 314 316 315 315 318 327 347 36 84 118 133 138 140 141 139 136 136 138 138 137 138 140 139 139 139 139 138 137 136 135 131 126 124 125 127 130 134 137 140 142 144 147 149 150 152
299 299 298 297 297 297 297 296 295 294 294 292 289 288 289 291 292 293 293 295 296 297 297 299 301 302 303 305 307 309 313 316 317 315 311 306 306 308 302 308 325 331 330 330 332 337 347 8 38 69 90 109 122 127 126 126 127 127 128 130 130 130 132 133 134 135 137 137 136 136 135 132 126 122 122 125 127 131 136 139 141 143 145 147 149 150 151
301 301 301 302 301 299 298 298 297 297 296 293 290 290 292 293 294 295 296 298 302 304 304 304 306 309 310 311 311 309 311 317 323 323 317 310 312 314 305 319 337 341 342 350 4 16 32 45 59 82 98 105 111 116 117 115 115 115 116 118 121 124 125 126 128 131 133 133 133 133 130 126 123 122 123 126 129 133 138 140 141 143 146 148 149 150 150
306 305 303 303 302 301 301 300 298 296 295 295 295 296 299 299 299 301 303 305 307 307 305 306 309 312 314 315 315 313 314 322 326 323 318 317 334 343 335 332 344 359 17 31 37 46 58 66 76 92 101 104 107 109 109 107 107 108 109 111 113 116 118 119 121 125 127 128 128 127 124 122 121 123 125 128 131 134 138 140 141 144 146 147 147 148 148
306 304 303 302 302 302 301 299 297 296 298 300 302 303 304 306 308 310 309 308 306 304 303 308 316 318 319 320 319 317 321 328 328 324 320 325 350 5 8 9 17 35 51 58 60 65 72 79 88 96 100 102 105 104 102 101 102 104 106 108 110 110 111 114 117 121 124 125 124 122 121 121 123 125 128 130 132 134 137 139 142 144 145 145 145 145 145
304 303 302 300 300 299 300 298 296 296 298 301 305 307 309 312 315 313 309 308 308 309 314 324 329 326 323 322 320 319 327 336 339 340 345 346 349 8 25 41 55 63 68 71 73 76 81 87 93 96 97 99 100 98 97 98 101 103 105 107 109 110 112 115 118 120 122 122 120 119 120 123 125 128 130 133 135 136 138 141 143 144 145 145 145 144 143
302 303 302 299 298 300 300 297 295 297 301 305 308 310 314 319 318 314 312 315 322 328 338 345 339 329 325 324 322 321 330 348 3 12 21 30 33 37 50 63 68 70 73 77 78 80 85 90 92 94 95 97 97 96 95 96 98 100 102 105 107 110 113 116 118 120 120 119 119 120 123 125 128 131 133 135 137 138 140 141 142 143 143 143 142 141 140
304 304 303 302 301 300 299 298 298 301 307 311 310 311 317 321 318 316 320 331 338 344 350 349 343 338 339 343 345 346 343 352 15 26 32 39 50 59 65 70 72 73 77 81 82 84 88 91 92 94 98 99 98 97 97 98 99 101 103 105 108 112 115 116 118 120 120 120 122 125 127 129 132 134 136 137 138 140 141 141 141 141 141 141 141 140 139
306 304 303 303 300 296 296 300 304 307 310 313 311 311 317 320 320 324 335 342 345 350 354 353 351 356 2 9 19 30 36 35 31 32 39 48 58 62 65 70 74 77 78 79 81 85 89 92 93 96 99 100 100 100 100 100 102 105 107 109 111 114 116 118 120 121 121 122 125 128 130 132 134 136 137 138 139 140 141 141 140 140 140 140 140 140 141
306 305 304 301 296 295 301 308 312 311 313 315 314 315 320 324 328 336 344 346 347 353 0 360 1 7 15 23 33 44 51 57 62 62 60 63 65 65 67 72 77 79 80 80 80 83 88 92 94 96 97 99 100 102 103 103 104 106 108 110 112 114 116 118 121 122 122 123 125 127 129 132 135 136 136 136 137 138 139 138 138 138 139 140 141 144 148
310 308 304 299 299 308 317 318 314 315 319 319 318 322 329 334 338 343 346 349 351 355 2 8 13 19 25 33 42 49 56 62 66 68 69 71 72 73 76 78 80 82 84 85 84 85 88 92 94 96 97 98 98 100 102 104 106 108 110 111 113 115 116 118 120 122 123 124 125 127 130 133 134 135 134 134 135 135 136 135 136 138 140 143 147 150 154
308 297 290 299 312 321 324 322 321 321 322 322 324 331 338 343 345 346 350 354 356 355 357 9 19 24 30 39 48 54 61 67 70 71 72 73 74 75 78 80 81 84 86 87 87 87 89 91 93 94 96 96 97 99 102 104 106 108 110 111 113 114 116 118 120 122 124 125 127 128 130 132 133 133 133 133 134 135 135 137 139 142 145 148 152 155 158
306 302 307 319 326 329 331 331 331 330 330 330 334 342 350 351 347 351 359 2 0 357 355 2 16 26 33 42 52 61 68 74 76 76 77 79 79 79 80 81 82 83 84 85 85 85 87 89 91 94 95 97 99 102 104 106 107 108 108 109 110 112 113 115 117 119 121 124 125 126 128 130 131 131 132 134 136 138 140 143 145 147 150 154 158 162 167